Regional Weather Roundup
Issued by NWS Charleston, WV

Home | Current Version | Previous Version | Graphics & Text | Print | Product List | Glossary On
Versions: 1 2 3 4 5 6 7 8 9 10 11 12 13 14 15 16 17 18 19 20 21 22 23 24 25 26 27 28 29 30 31 32 33 34 35 36 37 38 39 40 41 42 43 44 45 46 47 48 49 50
000
ASUS41 KRLX 020210
RWRRLX
West Virginia Regional Weather Roundup
National Weather Service Charleston WV
900 PM EST SUN MAR 01 2015

Note: "fair" indicates few or no clouds below 12,000 feet with no
significant weather and/or obstructions to visibility.

WVZ003-020300-
Northern Panhandle of West Virginia

CITY           SKY/WX    TMP DP  RH WIND       PRES   REMARKS
WHEELING       LGT RAIN  35  33  92 SW8       30.17F
$$

WVZ009-020300-
Northwest West Virginia

CITY           SKY/WX    TMP DP  RH WIND       PRES   REMARKS
PARKERSBURG    CLOUDY    38  35  89 SW6       30.24F FOG
$$

WVZ006-020300-
Western West Virginia

CITY           SKY/WX    TMP DP  RH WIND       PRES   REMARKS
HUNTINGTON     FOG       39  39 100 CALM      30.24F VSB 1/4
$$

WVZ015-020300-
West Central West Virginia

CITY           SKY/WX    TMP DP  RH WIND       PRES   REMARKS
CHARLESTON     LGT RAIN  43  42  97 S8        30.22F FOG
$$

WVZ022-031-020300-
North Central West Virginia

CITY           SKY/WX    TMP DP  RH WIND       PRES   REMARKS
CLARKSBURG     LGT RAIN  40  39  97 SW9       30.21F
MORGANTOWN     LGT RAIN  40  36  86 SW6       30.20S
$$

WVZ025-035-042-045-020300-
Southern West Virginia

CITY           SKY/WX    TMP DP  RH WIND       PRES   REMARKS
BECKLEY        FOG       42  40  92 W5        30.23F VSB 1/4
LOGAN          CLOUDY    43  43 100 CALM      30.21F FOG
BLUEFIELD      CLOUDY    45  42  89 W15       30.24F
LEWISBURG      FOG       35  34  95 CALM      30.24S VSB 1
$$

WVZ047-020300-
Northern Mountains of West Virginia

CITY           SKY/WX    TMP DP  RH WIND       PRES   REMARKS
ELKINS         LGT RAIN  43  40  89 W8G18     30.20S
$$

WVZ052-020300-
Eastern Panhandle of West Virginia

CITY           SKY/WX    TMP DP  RH WIND       PRES   REMARKS
MARTINSBURG    CLOUDY    32  28  85 CALM      30.20F FOG
PETERSBURG     CLOUDY    31  31 100 CALM      30.17F FOG
$$


USA.gov is the U.S. government's official web portal to all federal, state and local government web resources and services.